[ hide orbit diagram ]
For accurate long-term ephemerides, please instead use our Horizons system.This orbit viewer was implemented using two-body methods, and hence should not be used for determining accurate long-term trajectories (over several years or decades) or planetary encounter circumstances.
Orbital Elements at Epoch 2459000.5 (2020-May-31.0) TDB
Reference: JPL 18 (heliocentric ecliptic J2000)
Element | Value | Uncertainty (1-sigma) | Units |
e | .3723652719988748 | 3.5903e-08 | |
a | 3.271825617150775 | 2.1359e-08 | au |
q | 2.05351138128754 | 1.2286e-07 | au |
i | 7.811955775113681 | 6.2181e-06 | deg |
node | 175.9590508303486 | 4.166e-05 | deg |
peri | 328.4509145904529 | 4.3236e-05 | deg |
M | 344.7602989205308 | 1.1194e-05 | deg |
tp | 2459092.007691072960 (2020-Aug-30.50769107) | 6.7743e-05 | TDB |
period | 2161.64140060763 5.92 | 2.1167e-05 5.795e-08 | d yr |
n | .1665401115554158 | 1.6308e-09 | deg/d |
Q | 4.49013985301401 | 2.9312e-08 | au |
|
| | Orbit Determination Parameters
Additional Information
|
[ show covariance matrix ]
Physical Parameter Table
Parameter |
Symbol |
Value |
Units |
Sigma |
Reference |
Notes |
absolute magnitude |
H |
15.2 |
|
n/a |
MPO337849 |
|
|
78801 (2003 AK88) Discovered 2003-Jan-02 by LINEAR at Socorro |
Reference: 20040415/Numbers.arc | Last Updated: 2004-04-19 |
|
|